Location: *
(50.2903°S, 172.5375°W)
Time: 23:56:31
(UTC+00:00)

Cosmos 1898 Rocket - Pass Details

Date: 17 November 2019
Orbit: 753 x 785 km, 74.0° (Epoch: 07 December)

Event Time Altitude Azimuth Distance (km) Brightness Sun altitude
Rises 13:08:43 0° 203° (SSW) 3,257 7.3 -16.3°
Reaches altitude 10° 13:11:09 10° 199° (SSW) 2,322 6.6 -16.1°
Maximum altitude 13:16:22 62° 118° (ESE) 859 4.0 -15.7°
Drops below altitude 10° 13:21:32 10° 36° (NE) 2,291 5.7 -15.3°
Sets 13:23:54 0° 33° (NNE) 3,210 6.5 -15.1°
